| time (UTC) | temp F | wind direction | speed MPH | gust MPH | rain 1hr in | rain 24hr in | rain mn in | humidity % | barometer mb |
| 20260506193750 | 56 | 325 | 3.0 | 6.0 | 0.00 | 0.96 | 0.19 | 58 | 1011.4 |
| 20260506190737 | 58 | 257 | 3.0 | 6.0 | 0.00 | 0.96 | 0.19 | 58 | 1010.9 |
| 20260506183759 | 58 | 246 | 3.0 | 8.0 | 0.00 | 0.96 | 0.19 | 58 | 1011.1 |
| 20260506180732 | 58 | 290 | 1.0 | 6.0 | 0.00 | 0.96 | 0.19 | 57 | 1011.2 |
| 20260506173721 | 59 | 28 | 1.0 | 4.0 | 0.00 | 0.96 | 0.19 | 62 | 1011.3 |
| 20260506170734 | 57 | 311 | 1.0 | 6.0 | 0.00 | 0.96 | 0.19 | 67 | 1011.2 |
| 20260506163728 | 56 | 285 | 1.0 | 6.0 | 0.00 | 0.96 | 0.19 | 66 | 1011.4 |
| 20260506160727 | 55 | 284 | 2.0 | 6.0 | 0.00 | 0.96 | 0.19 | 69 | 1011.2 |
| 20260506153742 | 53 | 334 | 2.0 | 6.0 | 0.00 | 0.96 | 0.19 | 72 | 1010.8 |
| 20260506150724 | 52 | 360 | 2.0 | 6.0 | 0.00 | 0.96 | 0.19 | 74 | 1010.4 |
| 20260506143732 | 51 | 298 | 2.0 | 7.0 | 0.00 | 0.96 | 0.19 | 76 | 1010.5 |
| 20260506140730 | 48 | 290 | 327.0 | 327.0 | 0.00 | 0.00 | 0.19 | 88 | 1009.8 |
| 20260506130733 | 46 | 221 | 2.0 | 4.0 | 0.00 | 0.96 | 0.19 | 97 | 1009.7 |
| 20260506003726 | 59 | 198 | 1.0 | 4.0 | 0.08 | 0.45 | 0.45 | 99 | 1006.3 |
| 20260506000728 | 59 | 209 | 0.0 | 3.0 | 0.10 | 0.42 | 0.42 | 99 | 1006.2 |
| 20260505233729 | 59 | 226 | 1.0 | 3.0 | 0.06 | 0.37 | 0.37 | 98 | 1006.3 |
| 20260505230732 | 60 | 213 | 1.0 | 3.0 | 0.04 | 0.32 | 0.32 | 98 | 1006.7 |
| 20260505223722 | 60 | 230 | 0.0 | 3.0 | 0.09 | 0.31 | 0.31 | 98 | 1006.8 |
| 20260505220726 | 60 | 206 | 1.0 | 5.0 | 0.25 | 0.28 | 0.28 | 96 | 1007.0 |
| 20260505213801 | 63 | 254 | 3.0 | 26.0 | 0.19 | 0.22 | 0.22 | 84 | 1006.5 |
| 20260505210740 | 69 | 157 | 5.0 | 10.0 | 0.00 | 0.03 | 0.03 | 66 | 1005.5 |
| 20260505203724 | 69 | 222 | 3.0 | 8.0 | 0.00 | 0.03 | 0.03 | 66 | 1005.9 |
| 20260505200734 | 69 | 199 | 3.0 | 14.0 | 0.00 | 0.03 | 0.03 | 66 | 1006.2 |